Terminal Aerodrome Forecast
Issued by NWS

Home | Current Version | Previous Version | Text Only | Print | Product List | Glossary Off
Versions: 1 2 3 4 5 6 7 8 9 10 11 12 13 14 15 16 17 18 19 20 21 22 23 24 25

000
FTUS43 KABR 281300 AAA
TAFATY
TAF AMD
KATY 281349Z 2814/2912 16011G16KT P6SM BKN009
     FM281500 17014KT P6SM SKC
     FM281800 18023G33KT P6SM SKC
     FM290500 19017KT P6SM -SHRA OVC070
     FM290900 23014KT P6SM BKN100=

USA.gov is the U.S. government's official web portal to all federal, state and local government web resources and services.